User: anonymous   Login
Location: Lecco
(45.8566°N, 9.3977°E)
Time: 12:37:33
(UTC+02:00)
Language:

Vanguard 3 - Orbit

View from above orbital plane
View from above orbital plane
View from above satellite
View from above satellite

Ground track
Ground track

The orbit data is extracted from the following two-line orbital elements,

1    20U 59007A   20219.67066294 +.00000287 +00000-0 +11126-3 0  9998
2    20 033.3463 003.1767 1665357 173.1355 189.5408 11.55703921236413
Epoch (UTC): 06 August 2020 16:05:45
Eccentricity: 0.1665357
inclination: 33.3463°
perigee height: 509 km
apogee height: 3261 km
right ascension of ascending node: 3.1767°
argument of perigee: 173.1355°
revolutions per day: 11.55703921
mean anomaly at epoch: 189.5408°
orbit number at epoch: 23641

The dashed part of the orbit path shows where the satellite is in the earth's shadow,  

DLR